Location: Broletto
(44.6000°N, 10.5833°E)
Time: 06:03:30
(UTC+00:00)

Okean 3 Rocket - Pass Details

Date: 18 April 2021
Orbit: 615 x 644 km, 82.5° (Epoch: 05 May)

Event Time Altitude Azimuth Distance (km) Brightness Sun altitude
Rises 20:53:11 0° 352° (N) 2,963 8.0 -25.5°
Reaches altitude 10° 20:55:27 10° 353° (N) 2,047 6.9 -25.7°
Enters shadow 20:59:21 64° 9° (N) 710 3.9 -26.2°
